^^
Station Historical Data
Daily Summary for January 12, 2018 Units:  Metric    English   Both
« Previous Day
Next Day »
Daily Weekly Monthly Yearly Custom
  High: Low: Average:
Temperature: -17.8 °C -21.6 °C -20.1 °C
Dew Point: -17.8 °C -22.2 °C -20.6 °C
Humidity: Humidity% 92% 92%
Wind Speed: 0km/h 0km/h 0km/h
Wind Gust: 0km/h - -
Wind- - ENE
Pressure: 0 hPa 35048.5 hPa -
Precipitation: 0 mm    
Historical Graphs
 
 
Tabular Data for January 12, 2018
Time Temperature Dew Point Pressure Wind Wind Speed Wind Gust Humidity Rainfall Rate (Hourly) solar Conditions
-17.8 °C -17.8 °C 0 hPa Calm     Humidity% 0 mm SoftwareType W/m2 Conditions
00:02 -19.1 °C -19.7 °C 35048.5 hPa Calm     93% 0 mm WeatherDisplay:10.37 W/m2 FEW
00:07 -19.1 °C -19.7 °C 35048.5 hPa Calm     93% 0 mm WeatherDisplay:10.37 W/m2 FEW
00:18 -19.1 °C -19.7 °C 35048.5 hPa Calm     93% 0 mm WeatherDisplay:10.37 W/m2 FEW
00:23 -19.1 °C -19.7 °C 35058.6 hPa Calm     93% 0 mm WeatherDisplay:10.37 W/m2 FEW
00:28 -19.1 °C -19.7 °C 35048.5 hPa ENE 0.5 km/h 5.1 km/h 93% 0 mm WeatherDisplay:10.37 W/m2 FEW
00:40 -19.1 °C -19.7 °C 35058.6 hPa Calm     93% 0 mm WeatherDisplay:10.37 W/m2 FEW
00:45 -19.1 °C -19.7 °C 35058.6 hPa Calm     93% 0 mm WeatherDisplay:10.37 W/m2 FEW
00:50 -19.1 °C -19.7 °C 35058.6 hPa Calm     93% 0 mm WeatherDisplay:10.37 W/m2 FEW
01:00 -19.1 °C -19.7 °C 35072.2 hPa Calm     93% 0 mm WeatherDisplay:10.37 W/m2 FEW
01:05 -19.1 °C -19.7 °C 35072.2 hPa Calm     93% 0 mm WeatherDisplay:10.37 W/m2 FEW
01:06 -19.1 °C -19.7 °C 35072.2 hPa Calm     93% 0 mm WeatherDisplay:10.37 W/m2 FEW
01:11 -19.1 °C -19.7 °C 35072.2 hPa Calm     93% 0 mm WeatherDisplay:10.37 W/m2 FEW
01:16 -19.1 °C -19.7 °C 35072.2 hPa Calm     93% 0 mm WeatherDisplay:10.37 W/m2 FEW
01:19 -19.1 °C -19.7 °C 35072.2 hPa Calm     93% 0 mm WeatherDisplay:10.37 W/m2 FEW
01:24 -19.1 °C -19.7 °C 35072.2 hPa Calm     93% 0 mm WeatherDisplay:10.37 W/m2 FEW
01:29 -19.1 °C -19.7 °C 35082.3 hPa Calm     93% 0 mm WeatherDisplay:10.37 W/m2 FEW
01:37 -19.1 °C -19.7 °C 35082.3 hPa Calm     93% 0 mm WeatherDisplay:10.37 W/m2 FEW
01:43 -19.1 °C -19.7 °C 35082.3 hPa Calm     93% 0 mm WeatherDisplay:10.37 W/m2 FEW
01:48 -19.1 °C -19.7 °C 35082.3 hPa Calm     93% 0 mm WeatherDisplay:10.37 W/m2 FEW
01:53 -19.1 °C -19.7 °C 35082.3 hPa Calm     93% 0 mm WeatherDisplay:10.37 W/m2 FEW
01:55 -19.1 °C -19.7 °C 35082.3 hPa Calm     93% 0 mm WeatherDisplay:10.37 W/m2 FEW
02:00 -19.1 °C -19.7 °C 35082.3 hPa Calm     93% 0 mm WeatherDisplay:10.37 W/m2 FEW
02:05 -19.1 °C -19.7 °C 35082.3 hPa Calm     93% 0 mm WeatherDisplay:10.37 W/m2 FEW
02:10 -19.1 °C -19.7 °C 35082.3 hPa ENE 0.3 km/h 3.1 km/h 93% 0 mm WeatherDisplay:10.37 W/m2 FEW
02:15 -19.1 °C -19.7 °C 35082.3 hPa Calm     93% 0 mm WeatherDisplay:10.37 W/m2 FEW
02:24 -19.1 °C -19.7 °C 35082.3 hPa Calm     93% 0 mm WeatherDisplay:10.37 W/m2 FEW
02:32 -19.1 °C -19.7 °C 35082.3 hPa Calm     93% 0 mm WeatherDisplay:10.37 W/m2 FEW
02:37 -19.1 °C -19.7 °C 35082.3 hPa Calm     93% 0 mm WeatherDisplay:10.37 W/m2 FEW
02:44 -19.2 °C -19.7 °C 35082.3 hPa Calm     93% 0 mm WeatherDisplay:10.37 W/m2 FEW
02:49 -19.2 °C -19.7 °C 35082.3 hPa Calm     93% 0 mm WeatherDisplay:10.37 W/m2 FEW
03:04 -19.2 °C -19.7 °C 35082.3 hPa Calm     93% 0 mm WeatherDisplay:10.37 W/m2 FEW
03:09 -19.2 °C -19.8 °C 35082.3 hPa Calm     93% 0 mm WeatherDisplay:10.37 W/m2 FEW
03:14 -19.2 °C -19.8 °C 35095.9 hPa Calm     93% 0 mm WeatherDisplay:10.37 W/m2 FEW
03:19 -19.3 °C -19.8 °C 35095.9 hPa Calm     93% 0 mm WeatherDisplay:10.37 W/m2 FEW
03:24 -19.3 °C -19.8 °C 35095.9 hPa Calm     93% 0 mm WeatherDisplay:10.37 W/m2 FEW
03:32 -19.3 °C -19.8 °C 35095.9 hPa Calm     93% 0 mm WeatherDisplay:10.37 W/m2 FEW
03:42 -19.3 °C -19.9 °C 35095.9 hPa Calm   9 km/h 93% 0 mm WeatherDisplay:10.37 W/m2 FEW
03:45 -19.3 °C -19.9 °C 35095.9 hPa Calm     93% 0 mm WeatherDisplay:10.37 W/m2 FEW
03:50 -19.3 °C -19.9 °C 35095.9 hPa Calm     93% 0 mm WeatherDisplay:10.37 W/m2 FEW
03:55 -19.3 °C -19.9 °C 35095.9 hPa Calm     93% 0 mm WeatherDisplay:10.37 W/m2 FEW
04:10 -19.3 °C -19.9 °C 35106 hPa Calm     93% 0 mm WeatherDisplay:10.37 W/m2 FEW
04:15 -19.4 °C -19.9 °C 35106 hPa Calm     93% 0 mm WeatherDisplay:10.37 W/m2 FEW
04:20 -19.4 °C -19.9 °C 35106 hPa Calm     93% 0 mm WeatherDisplay:10.37 W/m2 FEW
04:25 -19.4 °C -19.9 °C 35106 hPa ENE 3.4 km/h 6 km/h 93% 0 mm WeatherDisplay:10.37 W/m2 FEW
04:35 -19.4 °C -20 °C 35106 hPa ENE 0.5 km/h 3.1 km/h 93% 0 mm WeatherDisplay:10.37 W/m2 FEW
04:40 -19.5 °C -20 °C 35106 hPa Calm     93% 0 mm WeatherDisplay:10.37 W/m2 FEW
04:45 -19.5 °C -20 °C 35116.2 hPa Calm     93% 0 mm WeatherDisplay:10.37 W/m2 FEW
04:50 -19.6 °C -20.1 °C 35116.2 hPa Calm     93% 0 mm WeatherDisplay:10.37 W/m2 FEW
04:57 -19.6 °C -20.1 °C 35116.2 hPa Calm     93% 0 mm WeatherDisplay:10.37 W/m2 FEW
05:04 -19.6 °C -20.2 °C 35116.2 hPa Calm     93% 0 mm WeatherDisplay:10.37 W/m2 FEW
05:09 -19.7 °C -20.2 °C 35116.2 hPa Calm     93% 0 mm WeatherDisplay:10.37 W/m2 FEW
05:14 -19.8 °C -20.3 °C 35116.2 hPa Calm     93% 0 mm WeatherDisplay:10.37 W/m2 FEW
05:19 -19.8 °C -20.3 °C 35129.8 hPa Calm     93% 0 mm WeatherDisplay:10.37 W/m2 FEW
05:24 -19.9 °C -20.5 °C 35129.8 hPa Calm     92% 0 mm WeatherDisplay:10.37 W/m2 FEW
05:29 -19.9 °C -20.6 °C 35129.8 hPa Calm     92% 0 mm WeatherDisplay:10.37 W/m2 FEW
05:35 -20 °C -20.5 °C 35129.8 hPa Calm     93% 0 mm WeatherDisplay:10.37 W/m2 FEW
05:49 -20.1 °C -20.6 °C 35129.8 hPa Calm     93% 0 mm WeatherDisplay:10.37 W/m2 FEW
05:54 -20.1 °C -20.6 °C 35129.8 hPa Calm     93% 0 mm WeatherDisplay:10.37 W/m2 FEW
05:59 -20.1 °C -20.6 °C 35139.9 hPa Calm     93% 0 mm WeatherDisplay:10.37 W/m2 FEW
06:04 -20.1 °C -20.7 °C 35139.9 hPa Calm     93% 0 mm WeatherDisplay:10.37 W/m2 FEW
06:09 -20.2 °C -20.7 °C 35139.9 hPa Calm     93% 0 mm WeatherDisplay:10.37 W/m2 FEW
06:20 -20.2 °C -20.7 °C 35139.9 hPa Calm     93% 0 mm WeatherDisplay:10.37 W/m2 FEW
06:25 -20.2 °C -20.8 °C 35139.9 hPa Calm     93% 0 mm WeatherDisplay:10.37 W/m2 FEW
06:30 -20.2 °C -20.8 °C 35139.9 hPa Calm     93% 0 mm WeatherDisplay:10.37 W/m2 FEW
06:35 -20.3 °C -20.8 °C 35139.9 hPa Calm     93% 0 mm WeatherDisplay:10.37 W/m2 FEW
06:43 -20.3 °C -20.8 °C 35139.9 hPa Calm     93% 0 mm WeatherDisplay:10.37 W/m2 FEW
06:48 -20.3 °C -20.9 °C 35139.9 hPa Calm     93% 0 mm WeatherDisplay:10.37 W/m2 FEW
06:53 -20.4 °C -20.9 °C 35139.9 hPa Calm     93% 0 mm WeatherDisplay:10.37 W/m2 FEW
06:58 -20.4 °C -20.9 °C 35139.9 hPa Calm     93% 0 mm WeatherDisplay:10.37 W/m2 FEW
07:13 -20.6 °C -21.1 °C 35139.9 hPa Calm     93% 0 mm WeatherDisplay:10.37 W/m2 FEW
07:18 -20.6 °C -21.1 °C 35150.1 hPa Calm     93% 0 mm WeatherDisplay:10.37 W/m2 FEW
07:28 -20.7 °C -21.2 °C 35150.1 hPa Calm     93% 0 mm WeatherDisplay:10.37 W/m2 FEW
07:33 -20.7 °C -21.3 °C 35150.1 hPa Calm     93% 0 mm WeatherDisplay:10.37 W/m2 FEW
07:38 -20.8 °C -21.3 °C 35150.1 hPa Calm     93% 0 mm WeatherDisplay:10.37 W/m2 FEW
07:43 -20.8 °C -21.3 °C 35150.1 hPa Calm     93% 0 mm WeatherDisplay:10.37 W/m2 FEW
07:48 -20.9 °C -21.6 °C 35150.1 hPa Calm     92% 0 mm WeatherDisplay:10.37 W/m2 FEW
07:58 -21 °C -21.6 °C 35150.1 hPa Calm     92% 0 mm WeatherDisplay:10.37 W/m2 FEW
08:03 -21.1 °C -21.7 °C 35150.1 hPa Calm     92% 0 mm WeatherDisplay:10.37 W/m2 FEW
08:10 -21.2 °C -21.8 °C 35163.6 hPa Calm     92% 0 mm WeatherDisplay:10.37 W/m2 FEW
08:15 -21.2 °C -21.8 °C 35163.6 hPa Calm     92% 0 mm WeatherDisplay:10.37 W/m2 FEW
08:20 -21.3 °C -21.9 °C 35163.6 hPa Calm     92% 0 mm WeatherDisplay:10.37 W/m2 FEW
08:25 -21.3 °C -21.9 °C 35163.6 hPa Calm     92% 0 mm WeatherDisplay:10.37 W/m2 FEW
08:39 -21.3 °C -21.9 °C 35173.8 hPa Calm     92% 0 mm WeatherDisplay:10.37 W/m2 FEW
08:44 -21.3 °C -21.9 °C 35173.8 hPa Calm     92% 0 mm WeatherDisplay:10.37 W/m2 FEW
08:49 -21.3 °C -21.8 °C 35173.8 hPa Calm     93% 0 mm WeatherDisplay:10.37 W/m2 FEW
08:54 -21.4 °C -22 °C 35173.8 hPa Calm     92% 0 mm WeatherDisplay:10.37 W/m2 FEW
08:59 -21.4 °C -22.1 °C 35173.8 hPa Calm     92% 0 mm WeatherDisplay:10.37 W/m2 FEW
09:26 -21.5 °C -22.1 °C 35197.5 hPa Calm     92% 0 mm WeatherDisplay:10.37 W/m2 FEW
09:31 -21.6 °C -22.1 °C 35197.5 hPa Calm     92% 0 mm WeatherDisplay:10.37 W/m2 FEW
09:36 -21.6 °C -22.2 °C 35197.5 hPa Calm     92% 0 mm WeatherDisplay:10.37 W/m2 FEW
09:46 -21.6 °C -22.2 °C 35207.6 hPa Calm     92% 0 mm WeatherDisplay:10.37 W/m2 FEW
09:56 -21.6 °C -22.2 °C 35207.6 hPa Calm     92% 0 mm WeatherDisplay:10.37 W/m2 FEW
10:01 -21.6 °C -22.2 °C 35207.6 hPa Calm     92% 0 mm WeatherDisplay:10.37 W/m2 FEW
10:06 -21.6 °C -22.2 °C 35207.6 hPa Calm     92% 0 mm WeatherDisplay:10.37 W/m2 FEW
10:11 -21.6 °C -22.2 °C 35207.6 hPa Calm     92% 0 mm WeatherDisplay:10.37 W/m2 FEW
10:21 -21.6 °C -22.2 °C 35221.2 hPa Calm     92% 0 mm WeatherDisplay:10.37 W/m2 FEW
10:31 -21.6 °C -22.2 °C 35221.2 hPa Calm     92% 0 mm WeatherDisplay:10.37 W/m2 FEW
10:36 -21.6 °C -22.2 °C 35221.2 hPa Calm     92% 0 mm WeatherDisplay:10.37 W/m2 FEW
10:41 -21.6 °C -22.2 °C 35221.2 hPa Calm     92% 0 mm WeatherDisplay:10.37 W/m2 FEW
10:46 -21.5 °C -22.1 °C 35221.2 hPa Calm     92% 0 mm WeatherDisplay:10.37 W/m2 FEW
10:53 -21.4 °C -21.9 °C 35221.2 hPa Calm     93% 0 mm WeatherDisplay:10.37 W/m2 FEW
10:58 -21.4 °C -21.9 °C 35221.2 hPa Calm     93% 0 mm WeatherDisplay:10.37 W/m2 FEW
11:03 -21.3 °C -21.9 °C 35221.2 hPa Calm     93% 0 mm WeatherDisplay:10.37 W/m2 FEW
11:08 -21.3 °C -21.9 °C 35221.2 hPa Calm     93% 0 mm WeatherDisplay:10.37 W/m2 FEW
11:16 -21.3 °C -21.8 °C 35221.2 hPa Calm     93% 0 mm WeatherDisplay:10.37 W/m2 FEW
11:25 -21.2 °C -21.7 °C 35221.2 hPa Calm     93% 0 mm WeatherDisplay:10.37 W/m2 FEW
11:30 -21.2 °C -21.7 °C 35221.2 hPa Calm     93% 0 mm WeatherDisplay:10.37 W/m2 FEW
11:35 -21.1 °C -21.6 °C 35231.3 hPa Calm     93% 0 mm WeatherDisplay:10.37 W/m2 FEW
11:41 -21 °C -21.6 °C 35231.3 hPa Calm     93% 0 mm WeatherDisplay:10.37 W/m2 FEW
11:46 -20.9 °C -21.4 °C 35231.3 hPa Calm     93% 0 mm WeatherDisplay:10.37 W/m2 FEW
11:54 -20.8 °C -21.3 °C 35231.3 hPa Calm     93% 0 mm WeatherDisplay:10.37 W/m2 FEW
12:04 -20.7 °C -21.2 °C 35231.3 hPa Calm     93% 0 mm WeatherDisplay:10.37 W/m2 FEW
12:09 -20.6 °C -21.1 °C 35231.3 hPa Calm     93% 0 mm WeatherDisplay:10.37 W/m2 FEW
12:14 -20.6 °C -21.1 °C 35231.3 hPa Calm     93% 0 mm WeatherDisplay:10.37 W/m2 FEW
12:19 -20.5 °C -21 °C 35231.3 hPa Calm     93% 0 mm WeatherDisplay:10.37 W/m2 FEW
12:31 -20.4 °C -20.9 °C 35231.3 hPa Calm     93% 0 mm WeatherDisplay:10.37 W/m2 FEW
12:42 -20.3 °C -20.8 °C 35244.9 hPa Calm     93% 0 mm WeatherDisplay:10.37 W/m2 FEW
12:49 -20.2 °C -20.7 °C 35244.9 hPa Calm     93% 0 mm WeatherDisplay:10.37 W/m2 FEW
12:58 -20.1 °C -20.7 °C 35244.9 hPa Calm     93% 0 mm WeatherDisplay:10.37 W/m2 FEW
13:03 -20.1 °C -20.6 °C 35231.3 hPa Calm     93% 0 mm WeatherDisplay:10.37 W/m2 FEW
13:11 -20.1 °C -20.6 °C 35244.9 hPa Calm     93% 0 mm WeatherDisplay:10.37 W/m2 FEW
13:16 -20.1 °C -20.6 °C 35244.9 hPa Calm     93% 0 mm WeatherDisplay:10.37 W/m2 FEW
13:21 -20.1 °C -20.6 °C 35244.9 hPa Calm     93% 0 mm WeatherDisplay:10.37 W/m2 FEW
13:26 -20 °C -20.5 °C 35244.9 hPa Calm     93% 0 mm WeatherDisplay:10.37 W/m2 FEW
13:38 -19.9 °C -20.5 °C 35244.9 hPa Calm     93% 0 mm WeatherDisplay:10.37 W/m2 FEW
13:43 -19.9 °C -20.5 °C 35244.9 hPa Calm     93% 0 mm WeatherDisplay:10.37 W/m2 FEW
13:48 -19.9 °C -20.5 °C 35244.9 hPa Calm     93% 0 mm WeatherDisplay:10.37 W/m2 FEW
13:56 -19.9 °C -20.4 °C 35244.9 hPa Calm     93% 0 mm WeatherDisplay:10.37 W/m2 FEW
14:01 -19.9 °C -20.4 °C 35244.9 hPa ENE 0.5 km/h 9 km/h 93% 0 mm WeatherDisplay:10.37 W/m2 FEW
14:06 -19.9 °C -20.4 °C 35244.9 hPa Calm     93% 0 mm WeatherDisplay:10.37 W/m2 FEW
14:11 -19.9 °C -20.4 °C 35244.9 hPa Calm     93% 0 mm WeatherDisplay:10.37 W/m2 FEW
14:16 -19.9 °C -20.4 °C 35244.9 hPa Calm     93% 0 mm WeatherDisplay:10.37 W/m2 FEW
14:21 -19.9 °C -20.4 °C 35244.9 hPa Calm     93% 0 mm WeatherDisplay:10.37 W/m2 FEW
14:26 -19.9 °C -20.5 °C 35244.9 hPa Calm     93% 0 mm WeatherDisplay:10.37 W/m2 FEW
14:31 -19.9 °C -20.5 °C 35244.9 hPa Calm     93% 0 mm WeatherDisplay:10.37 W/m2 FEW
14:36 -20 °C -20.5 °C 35244.9 hPa Calm     93% 0 mm WeatherDisplay:10.37 W/m2 FEW
14:41 -20 °C -20.5 °C 35255 hPa Calm     93% 0 mm WeatherDisplay:10.37 W/m2 FEW
14:49 -20.1 °C -20.6 °C 35255 hPa Calm     93% 0 mm WeatherDisplay:10.37 W/m2 FEW
14:54 -20.1 °C -20.6 °C 35255 hPa Calm     93% 0 mm WeatherDisplay:10.37 W/m2 FEW
15:04 -20.2 °C -20.7 °C 35255 hPa Calm     93% 0 mm WeatherDisplay:10.37 W/m2 FEW
15:09 -20.2 °C -20.7 °C 35255 hPa Calm     93% 0 mm WeatherDisplay:10.37 W/m2 FEW
15:14 -20.2 °C -20.8 °C 35255 hPa Calm     93% 0 mm WeatherDisplay:10.37 W/m2 FEW
15:19 -20.2 °C -20.8 °C 35255 hPa Calm     93% 0 mm WeatherDisplay:10.37 W/m2 FEW
15:29 -20.3 °C -20.8 °C 35255 hPa Calm     93% 0 mm WeatherDisplay:10.37 W/m2 FEW
15:38 -20.4 °C -20.9 °C 35265.2 hPa Calm     93% 0 mm WeatherDisplay:10.37 W/m2 FEW
15:44 -20.4 °C -20.9 °C 35265.2 hPa Calm     93% 0 mm WeatherDisplay:10.37 W/m2 FEW
15:49 -20.4 °C -20.9 °C 35265.2 hPa Calm     93% 0 mm WeatherDisplay:10.37 W/m2 FEW
15:54 -20.4 °C -20.9 °C 35265.2 hPa Calm     93% 0 mm WeatherDisplay:10.37 W/m2 FEW
15:59 -20.3 °C -20.9 °C 35265.2 hPa Calm     93% 0 mm WeatherDisplay:10.37 W/m2 FEW
16:04 -20.3 °C -20.9 °C 35265.2 hPa Calm     93% 0 mm WeatherDisplay:10.37 W/m2 FEW
16:09 -20.3 °C -20.8 °C 35265.2 hPa Calm     93% 0 mm WeatherDisplay:10.37 W/m2 FEW
16:14 -20.3 °C -20.8 °C 35265.2 hPa Calm     93% 0 mm WeatherDisplay:10.37 W/m2 FEW
16:19 -20.3 °C -20.8 °C 35265.2 hPa Calm     93% 0 mm WeatherDisplay:10.37 W/m2 FEW
16:26 -20.2 °C -20.8 °C 35265.2 hPa Calm     93% 0 mm WeatherDisplay:10.37 W/m2 FEW
16:31 -20.2 °C -20.8 °C 35265.2 hPa Calm     93% 0 mm WeatherDisplay:10.37 W/m2 FEW
16:38 -20.2 °C -20.7 °C 35265.2 hPa Calm     93% 0 mm WeatherDisplay:10.37 W/m2 FEW
16:54 -20.1 °C -20.6 °C 35278.7 hPa Calm     93% 0 mm WeatherDisplay:10.37 W/m2 FEW
16:59 -20.1 °C -20.6 °C 35278.7 hPa Calm     93% 0 mm WeatherDisplay:10.37 W/m2 FEW
17:04 -20.1 °C -20.6 °C 35278.7 hPa Calm     93% 0 mm WeatherDisplay:10.37 W/m2 FEW
17:09 -20 °C -20.5 °C 35278.7 hPa Calm     93% 0 mm WeatherDisplay:10.37 W/m2 FEW
17:14 -19.9 °C -20.5 °C 35278.7 hPa Calm     93% 0 mm WeatherDisplay:10.37 W/m2 FEW
17:19 -19.9 °C -20.5 °C 35278.7 hPa Calm     93% 0 mm WeatherDisplay:10.37 W/m2 FEW
17:24 -19.9 °C -20.5 °C 35278.7 hPa Calm     93% 0 mm WeatherDisplay:10.37 W/m2 FEW
17:29 -19.9 °C -20.5 °C 35278.7 hPa Calm     93% 0 mm WeatherDisplay:10.37 W/m2 FEW
17:34 -19.9 °C -20.5 °C 35278.7 hPa Calm     93% 0 mm WeatherDisplay:10.37 W/m2 FEW
17:39 -19.9 °C -20.4 °C 35278.7 hPa Calm     93% 0 mm WeatherDisplay:10.37 W/m2 FEW
17:44 -19.9 °C -20.4 °C 35278.7 hPa ENE 2.9 km/h 6 km/h 93% 0 mm WeatherDisplay:10.37 W/m2 FEW
17:51 -19.9 °C -20.4 °C 35278.7 hPa Calm     93% 0 mm WeatherDisplay:10.37 W/m2 FEW
18:05 -19.9 °C -20.4 °C 35278.7 hPa Calm     93% 0 mm WeatherDisplay:10.37 W/m2 FEW
18:10 -19.9 °C -20.4 °C 35278.7 hPa Calm     93% 0 mm WeatherDisplay:10.37 W/m2 FEW
18:15 -19.9 °C -20.5 °C 35278.7 hPa Calm     93% 0 mm WeatherDisplay:10.37 W/m2 FEW
18:24 -19.9 °C -20.5 °C 35288.9 hPa Calm     93% 0 mm WeatherDisplay:10.37 W/m2 FEW
18:31 -20 °C -20.5 °C 35288.9 hPa Calm     93% 0 mm WeatherDisplay:10.37 W/m2 FEW
18:37 -20 °C -20.5 °C 35288.9 hPa Calm     93% 0 mm WeatherDisplay:10.37 W/m2 FEW
19:00 -20.1 °C -20.6 °C 35288.9 hPa Calm     93% 0 mm WeatherDisplay:10.37 W/m2 FEW
19:05 -20.1 °C -20.6 °C 35288.9 hPa Calm     93% 0 mm WeatherDisplay:10.37 W/m2 FEW
19:10 -20 °C -20.5 °C 35288.9 hPa Calm     93% 0 mm WeatherDisplay:10.37 W/m2 FEW
19:15 -20 °C -20.5 °C 35288.9 hPa Calm     93% 0 mm WeatherDisplay:10.37 W/m2 FEW
19:20 -20 °C -20.5 °C 35288.9 hPa Calm     93% 0 mm WeatherDisplay:10.37 W/m2 FEW
19:25 -20 °C -20.5 °C 35288.9 hPa Calm     93% 0 mm WeatherDisplay:10.37 W/m2 FEW
19:30 -20 °C -20.5 °C 35288.9 hPa Calm     93% 0 mm WeatherDisplay:10.37 W/m2 FEW
19:35 -20 °C -20.5 °C 35288.9 hPa Calm     93% 0 mm WeatherDisplay:10.37 W/m2 FEW
19:44 -20 °C -20.5 °C 35288.9 hPa Calm     93% 0 mm WeatherDisplay:10.37 W/m2 FEW
19:51 -20 °C -20.5 °C 35288.9 hPa Calm     93% 0 mm WeatherDisplay:10.37 W/m2 FEW
20:03 -19.9 °C -20.5 °C 35288.9 hPa Calm     93% 0 mm WeatherDisplay:10.37 W/m2 FEW
20:08 -19.9 °C -20.6 °C 35288.9 hPa Calm     92% 0 mm WeatherDisplay:10.37 W/m2 FEW
20:13 -19.9 °C -20.6 °C 35299.1 hPa Calm     92% 0 mm WeatherDisplay:10.37 W/m2 FEW
20:22 -19.9 °C -20.6 °C 35288.9 hPa Calm     92% 0 mm WeatherDisplay:10.37 W/m2 FEW
20:27 -19.9 °C -20.4 °C 35288.9 hPa Calm     93% 0 mm WeatherDisplay:10.37 W/m2 FEW
20:32 -19.9 °C -20.4 °C 35288.9 hPa Calm     93% 0 mm WeatherDisplay:10.37 W/m2 FEW
20:37 -19.9 °C -20.4 °C 35299.1 hPa Calm     93% 0 mm WeatherDisplay:10.37 W/m2 FEW
20:49 -19.9 °C -20.6 °C 35299.1 hPa Calm     92% 0 mm WeatherDisplay:10.37 W/m2 FEW
20:54 -19.9 °C -20.6 °C 35299.1 hPa Calm     92% 0 mm WeatherDisplay:10.37 W/m2 FEW
20:59 -19.9 °C -20.6 °C 35299.1 hPa Calm     92% 0 mm WeatherDisplay:10.37 W/m2 FEW
21:11 -19.9 °C -20.6 °C 35299.1 hPa Calm     92% 0 mm WeatherDisplay:10.37 W/m2 FEW
21:18 -19.9 °C -20.6 °C 35299.1 hPa Calm     92% 0 mm WeatherDisplay:10.37 W/m2 FEW
21:28 -19.9 °C -20.6 °C 35312.6 hPa Calm     92% 0 mm WeatherDisplay:10.37 W/m2 FEW
21:33 -19.9 °C -20.5 °C 35312.6 hPa Calm     92% 0 mm WeatherDisplay:10.37 W/m2 FEW
21:41 -19.9 °C -20.5 °C 35312.6 hPa Calm     92% 0 mm WeatherDisplay:10.37 W/m2 FEW
21:49 -19.9 °C -20.5 °C 35299.1 hPa Calm     92% 0 mm WeatherDisplay:10.37 W/m2 FEW
21:54 -19.9 °C -20.5 °C 35299.1 hPa Calm     92% 0 mm WeatherDisplay:10.37 W/m2 FEW
21:59 -19.9 °C -20.5 °C 35299.1 hPa Calm     92% 0 mm WeatherDisplay:10.37 W/m2 FEW
22:04 -19.9 °C -20.5 °C 35299.1 hPa Calm     92% 0 mm WeatherDisplay:10.37 W/m2 FEW
22:09 -19.9 °C -20.5 °C 35312.6 hPa Calm     92% 0 mm WeatherDisplay:10.37 W/m2 FEW
22:24 -19.9 °C -20.5 °C 35312.6 hPa Calm     92% 0 mm WeatherDisplay:10.37 W/m2 FEW
22:29 -19.9 °C -20.5 °C 35312.6 hPa Calm     92% 0 mm WeatherDisplay:10.37 W/m2 FEW
22:39 -19.9 °C -20.5 °C 35312.6 hPa Calm     92% 0 mm WeatherDisplay:10.37 W/m2 FEW
22:44 -19.9 °C -20.5 °C 35312.6 hPa Calm     92% 0 mm WeatherDisplay:10.37 W/m2 FEW
22:49 -19.8 °C -20.4 °C 35312.6 hPa Calm     92% 0 mm WeatherDisplay:10.37 W/m2 FEW
22:54 -19.8 °C -20.4 °C 35312.6 hPa Calm     92% 0 mm WeatherDisplay:10.37 W/m2 FEW
23:03 -19.8 °C -20.4 °C 35312.6 hPa Calm     92% 0 mm WeatherDisplay:10.37 W/m2 FEW
23:12 -19.8 °C -20.4 °C 35312.6 hPa Calm     92% 0 mm WeatherDisplay:10.37 W/m2 FEW
23:21 -19.8 °C -20.4 °C 35312.6 hPa Calm     92% 0 mm WeatherDisplay:10.37 W/m2 FEW
23:28 -19.8 °C -20.4 °C 35312.6 hPa Calm     92% 0 mm WeatherDisplay:10.37 W/m2 FEW
23:37 -19.8 °C -20.4 °C 35312.6 hPa Calm     92% 0 mm WeatherDisplay:10.37 W/m2 FEW
23:42 -19.8 °C -20.4 °C 35312.6 hPa Calm     92% 0 mm WeatherDisplay:10.37 W/m2 FEW
23:48 -19.8 °C -20.4 °C 35312.6 hPa Calm     92% 0 mm WeatherDisplay:10.37 W/m2 FEW
23:57 -19.8 °C -20.4 °C 35312.6 hPa Calm     92% 0 mm WeatherDisplay:10.37 W/m2 FEW
Tuulensuunkaari, Veikkola, Suomi
Compliments of Weather Underground - 2.25 mb